CW5988 Weather Reports


time (UTC)temp
F
wind
direction
speed
knots
gust
knots
rain 1hr
in
rain 24hr
in
rain mn
in
humidity
%
barometer
mb
20260502170450 55 280 6.1 12.2 0.00 0.00 0.00 81 1013.9
20260502163938 55 272 3.5 7.8 0.00 0.00 0.00 83 1013.9
20260502163453 55 227 2.6 9.6 0.00 0.00 0.00 83 1014.0
20260502162917 55 218 2.6 9.6 0.00 0.00 0.00 83 1013.9
20260502162418 55 222 2.6 7.8 0.00 0.00 0.00 84 1013.9
20260502161924 55 258 2.6 9.6 0.00 0.00 0.00 84 1014.0
20260502161433 55 268 5.2 9.6 0.00 0.00 0.00 84 1014.0
20260502160949 54 249 1.7 7.8 0.00 0.00 0.00 84 1013.9
20260502160435 54 199 3.5 7.8 0.00 0.00 0.00 85 1013.9
20260502151919 54 283 3.5 6.1 0.00 0.00 0.00 85 1013.7
20260502151424 54 228 1.7 7.8 0.00 0.00 0.00 85 1013.6
20260502150932 54 244 3.5 8.7 0.00 0.00 0.00 85 1013.6
20260502150420 54 239 2.6 11.3 0.00 0.00 0.00 85 1013.5
20260502130429 54 252 2.6 8.7 0.00 0.00 0.00 85 1012.6
20260502123445 54 268 2.6 7.8 0.00 0.00 0.00 85 1012.6
20260502122930 54 198 3.5 7.8 0.00 0.00 0.00 85 1012.7
20260502122416 54 256 1.7 7.0 0.00 0.00 0.00 85 1012.6
20260502121923 54 221 3.5 7.0 0.00 0.00 0.00 85 1012.6
20260502121427 54 258 2.6 7.0 0.00 0.00 0.00 85 1012.6
20260502120935 54 158 2.6 10.4 0.00 0.00 0.00 85 1012.6
20260502120420 54 209 5.2 10.4 0.00 0.00 0.00 85 1012.6
20260502115924 54 258 4.3 8.7 0.00 0.00 0.00 85 1012.5
20260502115433 54 219 3.5 13.9 0.00 0.00 0.00 85 1012.7
20260502114919 54 201 7.0 13.9 0.00 0.00 0.00 85 1012.5
20260502114427 54 262 5.2 12.2 0.00 0.00 0.00 85 1012.6
20260502113956 54 285 3.5 12.2 0.00 0.00 0.00 85 1012.7
20260502113422 54 249 3.5 11.3 0.00 0.00 0.00 85 1012.6
20260502112929 54 222 5.2 10.4 0.00 0.00 0.00 85 1012.6
20260502112436 54 205 4.3 7.8 0.00 0.00 0.00 85 1012.6
20260502111951 54 268 3.5 10.4 0.00 0.00 0.00 85 1012.6
20260502111436 54 222 3.5 10.4 0.00 0.00 0.00 85 1012.7
20260502110924 54 273 2.6 7.8 0.00 0.00 0.00 85 1012.7
20260502110428 54 268 2.6 7.8 0.00 0.00 0.00 85 1012.7
20260502105935 54 247 1.7 5.2 0.00 0.00 0.00 85 1012.6
20260502105422 54 177 2.6 6.1 0.00 0.00 0.00 85 1012.7
20260502104930 54 313 0.9 6.1 0.00 0.00 0.00 85 1012.7
20260502104436 54 203 1.7 5.2 0.00 0.00 0.00 85 1012.7
20260502103953 54 268 1.7 7.8 0.00 0.00 0.00 85 1012.8
20260502103418 54 210 5.2 7.8 0.00 0.00 0.00 85 1012.7
20260502102939 54 240 3.5 9.6 0.00 0.00 0.00 85 1012.7
20260502102427 54 212 2.6 9.6 0.00 0.00 0.00 85 1012.7
20260502101932 54 230 3.5 8.7 0.00 0.00 0.00 85 1012.8
20260502101418 54 233 1.7 6.1 0.00 0.00 0.00 85 1012.8
20260502100925 54 318 2.6 8.7 0.00 0.00 0.00 85 1012.9
20260502100430 54 301 2.6 11.3 0.00 0.00 0.00 85 1013.0
20260502091429 54 242 2.6 4.3 0.00 0.00 0.00 86 1013.5
20260502090935 54 243 1.7 3.5 0.00 0.00 0.00 86 1013.5
20260502090421 54 88 0.9 7.8 0.00 0.00 0.00 86 1013.5
20260502071426 54 289 3.5 7.8 0.00 0.00 0.00 86 1013.8
20260502070934 54 289 3.5 7.0 0.00 0.00 0.00 86 1013.8
20260502070438 54 277 2.6 9.6 0.00 0.00 0.00 86 1013.8
20260502065952 54 241 4.3 8.7 0.00 0.00 0.00 86 1013.9
20260502065438 54 196 4.3 9.6 0.00 0.00 0.00 86 1013.9
20260502064924 54 280 5.2 9.6 0.00 0.00 0.00 86 1013.9
20260502064429 54 256 5.2 8.7 0.00 0.00 0.00 86 1013.9
20260502063917 54 249 5.2 9.6 0.00 0.00 0.00 86 1013.9
20260502063419 54 242 5.2 9.6 0.00 0.00 0.00 86 1013.9
20260502062927 54 212 2.6 8.7 0.00 0.00 0.00 86 1013.9
20260502062434 54 236 4.3 11.3 0.00 0.00 0.00 86 1013.9
20260502061950 54 242 3.5 11.3 0.00 0.00 0.00 86 1013.8
20260502061417 54 308 4.3 11.3 0.00 0.00 0.00 86 1013.9
20260502060923 54 206 6.1 11.3 0.00 0.00 0.00 86 1014.0
20260502060430 54 259 6.1 11.3 0.00 0.00 0.00 86 1013.9
20260502055917 54 254 5.2 13.0 0.00 0.00 0.00 86 1013.9
20260502055420 54 219 7.8 13.0 0.00 0.00 0.00 85 1013.9
20260502054927 54 264 7.0 13.9 0.00 0.00 0.00 85 1013.9
20260502054434 54 268 7.0 13.9 0.00 0.00 0.00 85 1013.9
20260502053941 54 263 9.6 13.9 0.00 0.00 0.00 85 1013.9
20260502053427 54 249 8.7 16.5 0.00 0.00 0.00 85 1013.9
20260502052933 54 258 8.7 16.5 0.00 0.00 0.00 85 1013.9
20260502052426 54 249 7.8 14.8 0.00 0.00 0.00 85 1013.9
20260502051932 54 247 4.3 14.8 0.00 0.00 0.00 85 1014.0
20260502051419 54 314 7.0 13.0 0.00 0.00 0.00 85 1013.9
20260502050953 54 202 5.2 13.0 0.00 0.00 0.00 85 1013.9
20260502050418 54 270 7.0 13.9 0.00 0.00 0.00 85 1013.9
20260502045927 54 270 6.1 13.9 0.00 0.00 0.00 85 1013.9
20260502045435 54 268 4.3 13.9 0.00 0.00 0.00 85 1013.9
20260502044938 54 270 5.2 13.9 0.00 0.00 0.00 85 1013.9
20260502044453 54 276 7.0 11.3 0.00 0.00 0.00 85 1013.9
20260502043934 54 239 4.3 11.3 0.00 0.00 0.00 85 1013.9
20260502043450 54 275 4.3 13.9 0.00 0.00 0.00 85 1013.8
20260502042936 54 242 7.0 13.9 0.00 0.00 0.00 85 1013.7
20260502042423 54 270 7.8 13.9 0.00 0.00 0.00 85 1013.6
20260502041931 54 265 5.2 13.9 0.00 0.00 0.00 85 1013.5
20260502041417 54 276 7.8 13.0 0.00 0.00 0.00 85 1013.4
20260502040921 54 212 7.8 15.6 0.00 0.00 0.00 85 1013.3
20260502040429 54 248 7.0 15.6 0.00 0.00 0.00 85 1013.3
20260502035935 54 272 7.8 15.6 0.00 0.00 0.00 85 1013.3
20260502035423 54 264 8.7 14.8 0.00 0.00 0.00 85 1013.2
20260502034929 54 242 7.0 14.8 0.00 0.00 0.00 85 1013.2
20260502034438 54 282 7.0 12.2 0.00 0.00 0.00 85 1013.2
20260502033957 54 273 7.0 12.2 0.00 0.00 0.00 84 1013.1
20260502033437 54 215 7.0 13.0 0.00 0.00 0.00 84 1013.1
20260502032923 54 275 7.8 15.6 0.00 0.00 0.00 84 1013.0
20260502032432 54 303 8.7 15.6 0.00 0.00 0.00 84 1013.0
20260502031920 54 268 7.0 12.2 0.00 0.00 0.00 84 1013.0
20260502031450 54 242 6.1 11.3 0.00 0.00 0.00 84 1012.9
20260502030936 55 268 6.1 10.4 0.00 0.00 0.00 83 1013.0
20260502030450 55 213 5.2 11.3 0.00 0.00 0.00 83 1013.0
20260502025931 55 221 5.2 11.3 0.00 0.00 0.00 83 1012.9
20260502025437 55 222 1.7 7.8 0.00 0.00 0.00 83 1013.0
20260502024953 55 240 2.6 7.8 0.00 0.00 0.00 82 1012.9
20260502024449 55 247 3.5 6.1 0.00 0.00 0.00 82 1012.7
20260502023934 55 184 2.6 10.4 0.00 0.00 0.00 82 1012.8
20260502023423 55 128 4.3 10.4 0.00 0.00 0.00 82 1012.6
20260502022943 55 39 2.6 10.4 0.00 0.00 0.00 82 1012.5
20260502022428 55 66 2.6 10.4 0.00 0.00 0.00 82 1012.6
20260502021934 56 7 3.5 7.8 0.00 0.00 0.00 81 1012.6
20260502021451 56 134 4.3 7.8 0.00 0.00 0.00 81 1012.7
20260502020935 56 31 2.6 8.7 0.00 0.00 0.00 81 1012.7
20260502020421 56 130 3.5 13.9 0.00 0.00 0.00 82 1012.7
20260502015928 56 323 0.9 13.0 0.00 0.00 0.00 81 1012.8
20260502015430 56 116 6.1 13.0 0.00 0.00 0.00 81 1012.8
20260502014936 56 329 3.5 10.4 0.00 0.00 0.00 81 1012.7
20260502014424 56 268 3.5 10.4 0.00 0.00 0.00 80 1012.7
20260502013931 57 22 4.3 10.4 0.00 0.00 0.00 80 1012.8
20260502013417 57 75 2.6 10.4 0.00 0.00 0.00 80 1012.7
20260502012922 57 210 5.2 17.4 0.00 0.00 0.00 80 1012.6
20260502012429 57 285 7.0 16.5 0.00 0.00 0.00 80 1012.7
20260502011934 57 151 4.3 16.5 0.00 0.00 0.00 80 1012.6
20260502011435 58 282 6.1 13.9 0.00 0.00 0.00 79 1012.7
20260502010921 58 345 6.1 13.0 0.00 0.00 0.00 79 1012.7
20260502010427 58 62 5.2 14.8 0.00 0.00 0.00 79 1012.8
20260502005930 58 225 6.1 14.8 0.00 0.00 0.00 80 1012.7
20260502005434 58 301 6.1 14.8 0.00 0.00 0.00 79 1012.7
20260502004941 58 256 7.0 15.6 0.00 0.00 0.00 79 1012.7
20260502004457 58 256 7.0 15.6 0.00 0.00 0.00 79 1012.6
20260502003921 58 214 4.3 13.0 0.00 0.00 0.00 79 1012.8
20260502003426 58 313 6.1 13.0 0.00 0.00 0.00 78 1012.7
20260502002930 58 199 5.2 13.0 0.00 0.00 0.00 79 1012.7
20260502002435 58 15 6.1 10.4 0.00 0.00 0.00 79 1012.6
20260502001923 58 97 5.2 10.4 0.00 0.00 0.00 79 1012.7
20260502001430 58 32 5.2 13.0 0.00 0.00 0.00 78 1012.9
20260502000935 58 45 5.2 16.5 0.00 0.00 0.00 78 1012.9
20260502000421 58 323 6.1 16.5 0.00 0.00 0.00 78 1012.9
20260501235921 58 147 3.5 13.0 0.00 0.00 0.00 77 1013.1
20260501235446 58 319 3.5 13.0 0.00 0.00 0.00 77 1013.0
20260501234933 59 333 7.8 13.0 0.00 0.00 0.00 77 1013.0
20260501234437 59 217 4.3 8.7 0.00 0.00 0.00 77 1013.1
20260501233954 59 55 3.5 9.6 0.00 0.00 0.00 77 1013.1
20260501233442 59 337 3.5 14.8 0.00 0.00 0.00 77 1013.3
20260501232929 59 50 2.6 14.8 0.00 0.00 0.00 77 1013.3
20260501232436 59 111 3.5 13.9 0.00 0.00 0.00 77 1013.2
20260501231953 58 45 5.2 12.2 0.00 0.00 0.00 78 1013.3
20260501231447 58 302 6.1 13.9 0.00 0.00 0.00 77 1013.3
20260501231002 59 294 7.8 15.6 0.00 0.00 0.00 77 1013.3
20260501230456 59 297 8.7 15.6 0.00 0.00 0.00 77 1013.3
20260501225931 59 8 7.0 13.0 0.00 0.00 0.00 76 1013.3
20260501225419 59 294 6.1 13.0 0.00 0.00 0.00 77 1013.5
20260501224945 59 22 4.3 11.3 0.00 0.00 0.00 77 1013.5
20260501224430 59 330 6.1 11.3 0.00 0.00 0.00 77 1013.6
20260501223936 59 350 5.2 13.0 0.00 0.00 0.00 77 1013.5
20260501223423 59 341 6.1 13.0 0.00 0.00 0.00 77 1013.6
20260501222928 59 306 4.3 14.8 0.00 0.00 0.00 76 1013.7
20260501222431 59 320 5.2 14.8 0.00 0.00 0.00 76 1013.8
20260501221918 60 276 6.1 10.4 0.00 0.00 0.00 76 1014.0
20260501221423 59 7 5.2 14.8 0.00 0.00 0.00 76 1014.2
20260501220932 59 302 2.6 14.8 0.00 0.00 0.00 77 1014.4
20260501220436 59 240 7.0 13.0 0.00 0.00 0.00 77 1014.5
20260501215939 59 268 5.2 13.0 0.00 0.00 0.00 77 1014.7
20260501215423 59 13 6.1 14.8 0.00 0.00 0.00 77 1014.7
20260501214945 59 315 8.7 14.8 0.00 0.00 0.00 77 1014.6
20260501214429 60 308 2.6 7.8 0.00 0.00 0.00 77 1014.7
20260501213935 59 289 3.5 11.3 0.00 0.00 0.00 77 1014.7
20260501213421 59 304 6.1 11.3 0.00 0.00 0.00 76 1014.7
20260501212929 59 7 4.3 8.7 0.00 0.00 0.00 76 1014.8
20260501212433 60 352 4.3 11.3 0.00 0.00 0.00 76 1014.8
20260501211934 60 252 2.6 8.7 0.00 0.00 0.00 77 1014.7
20260501211448 59 322 2.6 9.6 0.00 0.00 0.00 78 1014.8
20260501210934 59 256 4.3 10.4 0.00 0.00 0.00 78 1014.9
20260501210420 59 233 1.7 12.2 0.00 0.00 0.00 79 1015.0
20260501205925 58 289 3.5 11.3 0.00 0.00 0.00 79 1015.0
20260501205432 58 222 6.1 13.9 0.00 0.00 0.00 79 1015.0
20260501204938 58 229 6.1 13.9 0.00 0.00 0.00 79 1015.0
20260501204441 58 282 2.6 12.2 0.00 0.00 0.00 78 1015.1
20260501203945 59 260 5.2 12.2 0.00 0.00 0.00 80 1015.1
20260501203429 58 268 2.6 12.2 0.00 0.00 0.00 79 1015.2
20260501202933 58 256 4.3 11.3 0.00 0.00 0.00 79 1015.2
20260501202419 58 275 5.2 15.6 0.00 0.00 0.00 79 1015.3
20260501201924 58 236 7.0 15.6 0.00 0.00 0.00 79 1015.3
20260501201427 58 196 4.3 13.0 0.00 0.00 0.00 79 1015.2
20260501200931 58 273 7.8 13.0 0.00 0.00 0.00 80 1015.3
20260501200417 58 310 4.3 12.2 0.00 0.00 0.00 80 1015.2
20260501195924 57 295 3.5 14.8 0.00 0.00 0.00 80 1015.3
20260501195450 57 252 7.0 14.8 0.00 0.00 0.00 80 1015.4
20260501194935 58 283 7.0 11.3 0.00 0.00 0.00 80 1015.5
20260501194443 58 296 3.5 11.3 0.00 0.00 0.00 81 1015.4
20260501193953 57 169 4.3 13.9 0.00 0.00 0.00 81 1015.5
20260501193439 57 292 7.0 13.9 0.00 0.00 0.00 81 1015.4
20260501192921 57 341 1.7 9.6 0.00 0.00 0.00 81 1015.4
20260501192448 57 321 4.3 9.6 0.00 0.00 0.00 82 1015.6
20260501191933 57 163 4.3 13.9 0.00 0.00 0.00 82 1015.5
20260501191417 57 271 8.7 13.9 0.00 0.00 0.00 82 1015.5
20260501190917 57 287 5.2 12.2 0.00 0.00 0.00 82 1015.6
20260501190444 57 284 3.5 13.0 0.00 0.00 0.00 83 1015.6
20260501185940 56 308 3.5 8.7 0.00 0.00 0.00 83 1015.7
20260501185426 56 314 2.6 10.4 0.00 0.00 0.00 83 1015.7
20260501184931 56 302 6.1 10.4 0.00 0.00 0.00 83 1015.8
20260501184435 56 263 3.5 11.3 0.00 0.00 0.00 84 1015.9
20260501183919 56 240 4.3 11.3 0.00 0.00 0.00 84 1015.8
20260501183421 56 285 4.3 9.6 0.00 0.00 0.00 85 1016.0
20260501182954 55 247 2.6 7.0 0.00 0.00 0.00 85 1015.9
20260501182419 55 218 3.5 9.6 0.00 0.00 0.00 85 1016.0
20260501181926 55 237 4.3 8.7 0.00 0.00 0.00 85 1015.9
20260501181434 55 304 4.3 7.8 0.00 0.00 0.00 85 1015.8
20260501180921 55 333 3.5 7.0 0.00 0.00 0.00 85 1015.8
20260501180429 55 360 3.5 6.1 0.00 0.00 0.00 86 1015.9
20260501175930 55 250 2.6 6.1 0.00 0.00 0.00 86 1015.9
20260501175436 55 313 2.6 8.7 0.00 0.00 0.00 86 1015.9
20260501174923 55 256 3.5 9.6 0.00 0.00 0.00 86 1015.9
20260501174430 54 222 5.2 9.6 0.00 0.00 0.00 86 1015.9
20260501173934 54 213 4.3 9.6 0.00 0.00 0.00 86 1015.9
20260501173419 54 290 2.6 11.3 0.00 0.00 0.00 86 1015.8
20260501172924 54 256 6.1 11.3 0.00 0.00 0.00 86 1015.8
20260501172425 54 303 4.3 12.2 0.00 0.00 0.00 86 1015.8